Flag for Canada Weather past 2 weeks in Whitby, Ontario, Canada

Now
9 °F

Clear.


Feels Like: -1 °F
Forecast: 6 / 25 °F
Wind: 6 mph from North

Location: Toronto Buttonville

Current Time: Jan 28, 2015 at 5:08:26 AM

Latest Report: Jan 28, 2015 at 4:00 AM


Visibility: 15 mi

Pressure: 30.20 "Hg

Humidity: 56%

Dew point: -4 °F

Location of WhitbyLocation

Historic Weather in Whitby — Graph

°F

Whitby temperature yesterday

Maximum temperature yesterday: 19 °F (at 2:00 PM)
Minimum temperature yesterday: 9 °F (at 4:00 AM)
Average temperature yesterday: 13 °F

Past Weeks' High & Low Weather Summary

 TemperatureHumidityPressure
High41 °F (Jan 18, 7:00 AM)100% (Jan 18, 10:00 AM)30.85 "Hg (Jan 18, 10:00 AM)
Low-6 °F (Jan 13, 5:00 AM)30% (Jan 13, 4:00 PM)29.47 "Hg (Jan 24, 3:00 PM)
Average19 °F70%30.06 "Hg
* Reported Jan 13 4:00 AM — Jan 28 4:00 AM, Whitby, Weather by CustomWeather, © 2014

Note: Actual official high and low records may vary slightly from our data, if they occured in-between our weather recording intervals... More about our weather records

Advertising

Whitby weather history for previous 24 hours

 ConditionsComfort  
Time TempWeatherWind HumidityBarometerVisibility
4:00 AM
Jan 28
9 °FClear.6 mph56%30.20 "Hg15 mi
3:00 AM9 °FClear.7 mph56%30.17 "Hg15 mi
2:00 AM9 °FClear.7 mph56%30.18 "Hg15 mi
1:00 AM10 °FClear.5 mph56%30.18 "Hg15 mi
12:00 AM10 °FClear.7 mph56%30.17 "Hg15 mi
11:00 PM
Jan 27
12 °FClear.12 mph52%30.16 "Hg15 mi
10:00 PM14 °FClear.14 mph48%30.15 "Hg15 mi
9:00 PM16 °FClear.13 mph45%30.16 "Hg15 mi
8:00 PM12 °FClear.8 mph52%30.17 "Hg15 mi
7:00 PM14 °FClear.7 mph44%30.17 "Hg15 mi
6:00 PM14 °FPassing clouds.5 mph48%30.16 "Hg15 mi
5:00 PM18 °FScattered clouds.10 mph35%30.14 "Hg15 mi
4:00 PM18 °FPartly sunny.9 mph35%30.13 "Hg15 mi
3:00 PM18 °FPartly sunny.13 mph41%30.10 "Hg15 mi
2:00 PM19 °FPassing clouds.12 mph38%30.09 "Hg15 mi
1:00 PM18 °FPassing clouds.10 mph38%30.09 "Hg15 mi
12:00 PM18 °FScattered clouds.8 mph41%30.10 "Hg15 mi
11:00 AM14 °FPartly sunny.10 mph48%30.11 "Hg15 mi
10:00 AM12 °FPartly sunny.10 mph52%30.11 "Hg15 mi
9:00 AM10 °FLight snow. Partly sunny.9 mph67%30.10 "Hg12 mi
8:00 AM10 °FLight snow. Overcast.7 mph61%30.10 "Hg5 mi
7:00 AM10 °FLight snow. Mostly cloudy.7 mph67%30.07 "Hg8 mi
6:00 AM10 °FLight snow. Overcast.9 mph67%30.05 "Hg10 mi
5:00 AM10 °FLight snow. Overcast.9 mph72%30.04 "Hg12 mi
Weather by CustomWeather, © 2014

See weather overviewHow to use our weather pages